DECAYED

DELTA 1 DEB, 39101 (Decayed)

Orbit data source: Space-Track

DELTA 1 DEB, 39101 was space debris in LEO originally from a launch on Thu, 14 Jul 1977 UTC launched from the Air Force Eastern Test Range (AFETR). Debris objects in space refer to the collection of defunct objects orbiting the Earth. Examples of debris include non-operational satellites, rocket bodies, and fragments generated from explosions, collisions, or faulty payload assembly.

Not visible in the next 10 days
Identifier
39101, 1977-065GN
Orbit
Decayed
Country
Flag of USUS
Related business
Manufacturer
Unknown
Mission
Decayed spacecraft
Bus & Motor
Unknown
Mass
Unknown
Launch date (UTC)
1977-07-14 (49 years ago)
Launch vehicle
Unknown
Launch site
Air Force Eastern Test Range (AFETR)
Object type
Payload
Rocket body
Debris
Shape & HBR
Unknown shape, 0.1 m
Radar Cross Section
Medium (>0.1 m² and <1 m²)

Expand to show TLE details & history
Last TLE update: 2 years ago

TLE from 2 years ago
0 DELTA 1 DEB
1 39101U 77065GN  25043.74743803  .02288082  40885-2  34298-2 0  9994
2 39101  29.2848 203.6627 0032186  51.5843 308.7671 16.03420929554485
Epoch: 2025-02-12T17:56Z
TLE epoch observation values (Epoch: 2025-02-12T17:56:18.645Z)
Latitude
-0.00002°
Longitude
151.55151°
Altitude
249.888 km
Speed
7.768 km/s
True Right ascension
13h 34m 39s
True Declination
0° 00' 00"
Sunlit
Object was in full shadow at epoch
Visualization orbit readout
Latitude
Unknown
Longitude
Unknown
Altitude
Unknown
Speed
Unknown
Apparent Right ascension
Unknown
Apparent Declination
Unknown
Sunlit
N/A
Visualization observer readout
Local Sidereal Time
03:40:59
Azimuth
Unknown
Elevation
Unknown
Doppler factor
Unknown
Orbital elements
Apogee altitude
290.605 km
Perigee altitude
247.814 km
Semi-major axis
6,647.347 km
Eccentricity
0.00322
Inclination
29.2848°
RAAN
203.6627°
Arg. of periapsis
51.5843°
True anomaly
308.4788°
Mean anomaly
308.7671°
Eccentric anomaly
308.62302°
Mean motion
4.00471 °/min
Orbital period
89.89 mins
BSTAR
0.0034298
Loading maneuver chart data...
Computing Atmospheric mass density...
Loading historical data...
Loading historical data...
Loading historical data...
Loading historical data...
Loading historical data...
Loading historical data...
Loading historical data...

Documentation

Showing up to 5 results
|